User: anonymous   Login
Location: Caltech
(34.1382°N, 118.1253°W)
Time: 12:35:50
(UTC-08:00)
Language:

OAO 2 Rocket - Orbit

View from above orbital plane
View from above orbital plane
View from above satellite
View from above satellite

Ground track
Ground track

The orbit data is extracted from the following two-line orbital elements,

1 03598U 68110B   14356.23801700  .00001038  00000-0  24459-3 0  7909
2 03598 034.9948 063.0351 0049269 064.7931 343.7671 14.53857354434245
Epoch (UTC): 22 December 2014 05:42:44
Eccentricity: 0.0049269
inclination: 34.9948°
perigee height: 678 km
apogee height: 748 km
right ascension of ascending node: 63.0351°
argument of perigee: 64.7931°
revolutions per day: 14.53857354
mean anomaly at epoch: 343.7671°
orbit number at epoch: 43424

The dashed part of the orbit path shows where the satellite is in the earth's shadow,  

DLR